This is the latest recevied weather packets stored in our database for station/object EA3GKP-7. If no packets are shown the sender has not sent any weather packets the latest 10 day(s).
| Time | Temp. | Humidity | Pressure | Rain* | Wind** | Luminosity | Snow |
|---|---|---|---|---|---|---|---|
| 1787982627 | 23.33° C | 66% | 1022 hPa | - | - | - | - |
| 1787982327 | 23.33° C | 65% | 1022.1 hPa | - | - | - | - |
| 1787982027 | 23.33° C | 66% | 1022.1 hPa | - | - | - | - |
| 1787954126 | 26.67° C | 34% | 1021.9 hPa | - | - | - | - |
| 1787953826 | 27.22° C | 33% | 1021.8 hPa | - | - | - | - |
| 1787953526 | 27.22° C | 32% | 1021.8 hPa | - | - | - | - |
| 1787953226 | 27.22° C | 31% | 1021.9 hPa | - | - | - | - |
| 1787952926 | 27.22° C | 30% | 1021.9 hPa | - | - | - | - |
| 1787952626 | 27.22° C | 29% | 1021.9 hPa | - | - | - | - |
| 1787952326 | 27.78° C | 27% | 1021.9 hPa | - | - | - | - |
| 1787952026 | 27.22° C | 27% | 1021.8 hPa | - | - | - | - |
| 1787951726 | 27.22° C | 28% | 1021.8 hPa | - | - | - | - |
| 1787951426 | 27.22° C | 28% | 1021.6 hPa | - | - | - | - |
| 1787951126 | 27.78° C | 27% | 1021.4 hPa | - | - | - | - |
| 1787950826 | 27.78° C | 26% | 1021.4 hPa | - | - | - | - |
| 1787950526 | 27.22° C | 28% | 1021.3 hPa | - | - | - | - |
| 1787950226 | 27.22° C | 28% | 1021.2 hPa | - | - | - | - |
| 1787949926 | 27.22° C | 28% | 1021.2 hPa | - | - | - | - |
| 1787949626 | 27.78° C | 28% | 1021.2 hPa | - | - | - | - |
| 1787949326 | 27.78° C | 28% | 1021 hPa | - | - | - | - |
| 1787949026 | 27.78° C | 27% | 1020.8 hPa | - | - | - | - |
| 1787948726 | 27.78° C | 28% | 1020.9 hPa | - | - | - | - |
| 1787948426 | 27.78° C | 28% | 1020.9 hPa | - | - | - | - |
| 1787948126 | 27.78° C | 28% | 1021 hPa | - | - | - | - |
| 1787947826 | 27.78° C | 27% | 1020.9 hPa | - | - | - | - |
* Rain since midnight (hover to see other rain measurements)
** Current wind speed in m/s (hover to see current wind gust speed)